Wetbulb
43.46 43.10 42.68 43.46 43.81 43.96 43.80 43.34 41.50 38.40 37.32 39.58 40.88 43.86 44.64 43.54 44.36 44.01 42.84 46.10 49.72 50.98 51.48 49.74 49.18 49.05 48.88 49.02 49.12 49.46 50.60 51.45 53.03 54.46 55.55 56.80 57.90 58.87
43.81 42.65 42.26 42.42 42.76 42.98 43.05 43.04 42.55 40.91 38.77 39.95 41.12 42.19 42.91 43.97 44.60 43.50 43.08 46.12 47.47 50.12 51.08 50.75 49.31 48.66 48.85 47.75 47.89 47.86 48.78 49.32 51.09 53.50 54.96 56.54 56.60 57.13
42.37 42.26 42.34 42.05 41.64 41.53 41.73 41.74 41.56 41.00 39.36 41.36 41.15 41.03 40.50 41.10 42.37 42.49 43.22 42.20 42.73 48.17 50.22 50.13 49.78 48.46 48.73 47.23 46.48 46.49 46.24 47.26 48.68 51.02 53.03 55.09 56.37 58.43
41.83 41.55 41.65 43.38 40.98 40.63 40.17 40.08 40.07 40.34 39.23 39.36 38.76 39.31 39.48 40.53 40.74 40.60 42.89 44.06 41.61 46.23 48.77 49.05 48.54 47.81 47.91 47.57 45.49 45.10 44.90 44.86 45.89 47.91 49.51 51.79 53.88 55.83
41.23 41.07 41.42 40.95 40.14 39.93 39.48 39.05 39.11 40.95 39.01 37.66 39.06 38.20 38.52 38.94 39.27 39.43 39.85 40.13 42.18 44.98 45.80 46.78 47.92 47.60 47.16 46.99 44.76 43.85 43.53 43.55 43.90 45.19 46.71 48.19 50.28 52.25
41.09 41.07 40.98 40.71 40.18 39.96 39.96 39.40 39.80 38.28 37.84 36.95 37.21 37.85 37.19 38.69 37.52 36.94 37.24 37.43 38.00 40.93 42.04 42.77 44.63 45.55 46.91 46.55 45.71 43.06 42.11 42.71 42.76 43.16 45.00 45.65 46.57 48.42
38.50 39.44 40.53 41.36 43.27 43.60 42.20 39.71 38.75 37.63 37.17 36.87 36.34 35.91 36.69 35.92 35.63 36.22 35.29 35.36 35.49 35.36 35.65 36.45 36.80 37.53 38.84 42.56 44.14 42.88 42.21 41.98 41.75 41.96 42.64 43.97 44.07 45.05
36.56 37.27 37.97 40.17 40.47 42.59 42.81 43.17 42.86 39.47 38.80 36.26 36.79 36.05 35.57 34.89 34.84 34.69 33.95 32.58 32.13 34.22 33.23 34.01 34.79 35.02 36.24 37.37 43.61 43.99 43.31 42.33 41.98 41.26 40.89 40.98 41.08 42.00
35.72 35.69 36.47 38.32 38.02 37.00 39.77 41.72 41.03 42.63 42.86 40.17 39.38 39.64 36.59 36.42 35.23 33.52 32.81 32.63 32.82 34.37 32.85 31.47 32.11 32.74 34.15 35.55 41.15 44.43 44.54 43.39 42.45 41.81 40.82 39.38 39.37 39.66
35.52 35.54 35.35 35.84 36.77 40.18 38.25 36.78 36.72 37.01 37.83 38.64 37.86 39.02 38.60 39.10 36.59 36.54 35.38 35.09 33.90 34.47 33.34 31.43 30.44 30.78 32.49 32.19 37.99 41.47 44.56 45.01 43.00 42.20 41.31 39.62 38.54 38.68
36.14 35.70 36.52 36.17 40.54 42.97 38.25 35.69 35.14 35.86 39.49 41.61 42.18 42.61 42.94 43.95 43.32 36.59 36.27 35.45 35.62 35.95 33.24 33.13 31.94 29.94 29.94 29.63 30.53 37.17 42.17 44.64 43.77 42.50 41.30 40.29 38.45 37.86
35.02 35.14 38.67 38.70 41.23 41.71 38.89 37.29 36.64 37.01 37.43 37.79 36.33 36.32 37.36 36.45 40.22 37.83 38.95 36.05 34.64 33.23 34.69 31.46 29.62 28.99 27.35 27.40 27.98 29.30 32.15 42.22 43.38 42.69 41.08 40.61 39.33 30.30
33.48 34.13 34.73 39.38 40.07 39.71 39.82 35.24 37.07 38.79 38.82 38.23 35.79 33.56 32.55 32.50 33.01 33.58 32.98 35.96 35.52 35.23 36.81 34.66 30.16 28.55 28.93 26.96 27.19 28.17 29.39 31.70 33.57 36.55 42.08 41.03 40.01 33.95
32.94 33.63 33.97 38.18 38.31 38.16 37.23 38.24 37.90 37.36 34.96 34.08 33.08 33.26 31.12 33.02 34.93 35.76 35.67 34.78 36.17 37.55 39.00 36.37 32.74 32.63 32.05 28.67 28.55 27.37 27.33 28.40 29.33 30.75 32.07 39.13 40.68 39.96
33.12 35.17 37.52 37.34 36.95 34.62 36.27 37.53 36.81 31.53 30.15 29.32 31.33 31.74 33.47 35.16 34.46 33.98 34.30 33.85 33.07 31.95 36.63 35.07 34.00 32.79 32.60 31.86 30.49 27.73 26.60 27.02 29.25 26.96 25.77 28.29 30.67 30.72
33.89 31.72 34.73 36.12 35.35 33.62 31.55 30.65 29.56 28.80 28.56 28.33 30.81 32.30 33.28 32.59 33.02 34.03 33.69 34.10 32.35 33.68 33.35 34.50 33.87 33.48 31.84 31.99 31.66 31.63 29.79 30.62 26.24 25.54 26.05 25.38 27.99 29.45
35.04 30.40 28.71 28.38 27.31 27.26 26.82 27.08 27.46 27.53 27.53 28.06 29.98 30.41 30.72 31.33 32.03 33.18 33.30 33.33 32.29 32.84 32.85 32.25 33.13 33.47 34.07 32.90 30.64 31.78 31.79 29.67 31.07 30.20 27.52 25.40 28.04 30.08
31.84 28.24 28.30 27.28 27.00 27.29 26.93 26.95 26.98 28.65 28.02 27.83 27.46 29.94 30.05 30.39 30.74 31.11 32.65 32.53 31.95 32.86 33.07 32.91 31.90 30.12 29.75 31.14 34.79 32.43 30.81 30.53 28.94 27.42 28.62 27.44 28.02 28.58
29.76 29.23 28.00 28.02 27.76 27.69 27.30 27.13 26.70 27.87 27.75 25.72 29.15 29.98 30.35 30.55 30.78 30.60 30.88 31.61 32.03 32.51 33.14 33.58 32.59 31.08 28.63 27.97 27.39 35.46 31.75 31.77 30.58 28.53 28.35 27.05 27.68 26.83
28.36 28.04 27.64 27.83 27.60 27.16 27.09 26.62 26.92 27.31 27.10 27.57 28.74 30.95 30.18 30.63 29.84 30.58 30.59 30.35 30.57 32.18 32.45 32.98 32.31 31.86 30.67 30.03 28.10 24.93 33.91 24.38 27.38 28.53 26.09 27.68 27.52 30.91
28.43 28.45 28.25 27.99 27.85 27.83 27.98 27.58 27.33 27.10 27.73 29.08 29.56 29.74 31.00 30.47 28.91 29.48 30.57 32.19 31.98 31.57 31.08 31.71 32.85 36.21 33.18 31.44 29.73 23.03 22.63 33.27 29.23 22.17 20.50 23.38 23.49 24.00
29.10 29.10 29.47 29.73 29.42 29.04 28.70 28.14 27.80 28.97 29.89 29.99 29.83 30.00 30.16 30.50 28.95 29.91 29.83 30.10 30.67 30.43 31.80 32.80 33.53 33.26 32.21 30.57 29.39 29.88 23.56 21.25 30.10 32.96 30.39 28.08 22.09 19.68
28.85 28.98 29.16 29.28 28.31 28.45 28.42 27.76 28.14 29.25 29.95 29.89 29.65 30.27 30.86 29.96 29.71 30.73 30.56 30.40 30.77 30.38 31.42 30.88 32.43 32.51 31.97 31.52 31.55 30.54 23.50 23.09 21.48 25.77 30.22 33.14 32.69 31.99
MSLP
1021.43 1021.54 1021.56 1021.23 1021.36 1021.35 1021.35 1021.43 1021.59 1021.45 1020.97 1020.07 1019.86 1019.27 1019.20 1019.05 1018.82 1018.56 1018.33 1018.04 1017.61 1017.29 1017.01 1016.84 1016.85 1016.69 1016.44 1016.18 1015.89 1015.37 1014.79 1014.30 1013.55 1012.70 1012.00 1011.52 1010.84 1010.31
1021.25 1021.33 1021.32 1021.12 1021.15 1021.18 1021.12 1021.16 1021.21 1021.32 1021.20 1020.21 1019.82 1019.36 1019.00 1018.79 1018.51 1018.40 1018.20 1017.88 1017.53 1017.15 1016.94 1016.75 1016.60 1016.51 1016.32 1016.37 1016.14 1015.70 1015.15 1014.68 1014.08 1013.27 1012.55 1011.79 1011.37 1010.96
1020.80 1021.02 1021.01 1020.94 1020.88 1020.90 1020.95 1021.00 1021.03 1021.03 1020.88 1020.00 1019.66 1019.31 1019.04 1018.80 1018.44 1018.14 1017.89 1017.73 1017.48 1017.10 1016.81 1016.62 1016.40 1016.36 1016.30 1016.14 1016.29 1015.96 1015.54 1015.05 1014.54 1013.96 1013.36 1012.54 1011.92 1011.13
1020.63 1020.63 1020.53 1020.57 1020.57 1020.58 1020.62 1020.66 1020.71 1020.59 1020.71 1020.29 1019.73 1019.40 1019.05 1018.61 1018.36 1018.16 1017.64 1017.37 1017.33 1016.98 1016.69 1016.51 1016.37 1016.25 1016.19 1016.16 1016.07 1016.08 1015.83 1015.44 1015.01 1014.53 1014.06 1013.39 1012.68 1012.02
1020.64 1020.58 1020.42 1020.37 1020.36 1020.31 1020.35 1020.38 1020.22 1020.06 1020.13 1020.21 1019.83 1019.31 1018.96 1018.57 1018.27 1017.95 1017.66 1017.29 1016.91 1016.68 1016.51 1016.35 1016.18 1016.12 1016.07 1015.99 1016.09 1015.99 1015.96 1015.72 1015.40 1014.97 1014.60 1014.19 1013.66 1013.08
1020.59 1020.33 1020.21 1020.18 1020.18 1020.09 1020.04 1019.94 1019.79 1019.87 1019.80 1019.75 1019.56 1019.31 1019.00 1018.48 1018.44 1018.25 1017.73 1017.29 1016.91 1016.45 1016.29 1016.19 1015.98 1015.99 1016.00 1015.90 1015.91 1015.92 1015.84 1015.73 1015.57 1015.36 1014.99 1014.77 1014.47 1014.12
1020.64 1020.51 1020.41 1020.13 1019.90 1019.80 1019.72 1019.57 1019.55 1019.44 1019.40 1019.41 1019.33 1019.07 1018.69 1018.44 1018.35 1017.99 1017.90 1017.48 1017.03 1016.75 1016.52 1016.33 1016.26 1016.19 1016.01 1015.87 1015.79 1015.85 1015.77 1015.68 1015.61 1015.60 1015.45 1015.07 1014.82 1014.78
1020.81 1020.54 1020.42 1020.07 1019.77 1019.63 1019.50 1019.26 1019.13 1019.03 1018.95 1019.01 1018.76 1018.62 1018.37 1018.19 1017.96 1017.81 1017.60 1017.56 1017.51 1016.79 1016.73 1016.64 1016.48 1016.23 1015.97 1015.79 1015.60 1015.57 1015.64 1015.64 1015.60 1015.61 1015.63 1015.63 1015.44 1015.24
1020.91 1020.71 1020.39 1020.13 1019.91 1019.60 1019.20 1019.07 1018.87 1018.68 1018.44 1018.29 1018.22 1017.95 1017.78 1017.53 1017.52 1017.48 1017.45 1017.39 1017.19 1016.54 1016.56 1016.40 1016.22 1016.07 1015.66 1015.44 1015.11 1015.08 1015.21 1015.36 1015.43 1015.55 1015.68 1015.74 1015.72 1015.57
1021.00 1020.73 1020.48 1020.15 1019.77 1019.59 1019.25 1019.00 1018.79 1018.46 1018.06 1017.75 1017.75 1017.50 1017.24 1016.95 1017.01 1016.79 1016.74 1016.78 1016.63 1016.37 1016.42 1016.19 1015.74 1015.65 1015.30 1014.94 1014.85 1014.69 1014.64 1014.80 1015.19 1015.33 1015.53 1015.77 1015.89 1015.90
1020.83 1020.66 1020.34 1019.94 1019.57 1019.28 1019.12 1019.05 1018.69 1018.29 1017.73 1017.29 1016.95 1016.68 1016.52 1016.27 1016.16 1016.52 1016.47 1016.51 1016.09 1015.83 1015.81 1015.83 1015.53 1015.53 1015.27 1014.89 1014.67 1014.52 1014.36 1014.39 1014.72 1015.14 1015.37 1015.61 1015.86 1015.99
1020.76 1020.59 1020.24 1019.96 1019.50 1019.07 1018.91 1018.73 1018.43 1017.97 1017.73 1017.24 1016.74 1016.43 1016.38 1016.22 1015.92 1016.07 1016.07 1015.98 1015.84 1015.53 1014.87 1015.57 1015.44 1015.65 1015.58 1015.02 1014.89 1014.65 1014.48 1014.12 1014.40 1014.77 1015.00 1015.35 1015.67 1016.25
1020.75 1020.41 1020.08 1019.81 1019.43 1019.05 1018.74 1018.52 1018.20 1017.83 1017.42 1017.21 1017.04 1016.61 1016.27 1016.12 1015.96 1015.86 1015.79 1015.77 1015.39 1014.94 1014.44 1014.86 1015.02 1015.36 1015.39 1015.60 1015.17 1015.01 1014.85 1014.68 1014.66 1014.62 1014.58 1014.89 1015.30 1015.95
1020.67 1020.25 1019.87 1019.51 1019.24 1018.94 1018.59 1018.25 1017.90 1017.63 1017.40 1017.21 1016.93 1016.81 1016.45 1015.90 1015.58 1015.24 1014.94 1014.96 1014.76 1014.39 1014.11 1014.17 1014.35 1014.49 1014.64 1015.03 1015.21 1015.00 1014.96 1014.92 1014.92 1014.81 1014.70 1014.52 1014.74 1015.11
1020.28 1020.00 1019.52 1019.17 1018.96 1018.73 1018.43 1018.09 1017.76 1017.53 1017.36 1017.01 1016.66 1016.28 1016.09 1015.84 1015.21 1014.78 1014.36 1014.20 1013.98 1013.75 1013.67 1013.72 1013.75 1013.84 1014.02 1014.05 1014.32 1014.52 1014.81 1014.69 1014.62 1014.74 1014.92 1014.94 1014.99 1015.12
1019.73 1019.43 1019.08 1018.82 1018.59 1018.31 1018.08 1017.92 1017.78 1017.53 1017.28 1016.88 1016.49 1015.96 1015.57 1015.34 1015.17 1014.61 1014.20 1013.70 1013.63 1013.11 1012.89 1012.92 1013.11 1013.40 1013.53 1013.56 1013.59 1013.72 1013.91 1014.28 1014.30 1014.40 1014.66 1014.92 1014.93 1014.95
1018.83 1018.85 1018.78 1018.62 1018.35 1018.04 1017.59 1017.36 1017.24 1017.15 1016.96 1016.45 1015.95 1015.60 1015.12 1014.75 1014.58 1014.16 1013.77 1013.44 1013.07 1012.66 1012.58 1012.54 1012.53 1012.64 1012.85 1012.89 1013.10 1013.11 1013.20 1013.51 1013.50 1013.72 1014.28 1014.43 1014.20 1014.16
1018.41 1018.43 1018.34 1018.17 1017.78 1017.51 1017.26 1016.92 1016.67 1016.32 1016.13 1015.78 1015.35 1015.01 1014.57 1014.16 1013.86 1013.59 1013.25 1012.92 1012.53 1012.16 1011.95 1011.92 1012.08 1012.43 1012.57 1012.30 1012.25 1012.25 1012.44 1012.65 1012.72 1012.96 1013.37 1013.71 1013.55 1013.34
1018.27 1018.08 1017.84 1017.53 1017.20 1016.97 1016.63 1016.48 1016.08 1015.69 1015.33 1015.14 1014.76 1014.21 1013.92 1013.57 1013.32 1012.93 1012.57 1012.41 1011.85 1011.50 1011.26 1011.22 1011.33 1011.57 1011.66 1011.32 1010.87 1011.11 1011.51 1011.59 1011.98 1012.43 1012.67 1012.97 1012.86 1012.54
1017.66 1017.42 1017.19 1016.94 1016.62 1016.41 1016.01 1015.73 1015.41 1015.02 1014.79 1014.42 1013.97 1013.45 1013.12 1012.97 1012.65 1012.27 1011.86 1011.51 1011.24 1010.85 1010.43 1010.41 1010.35 1010.42 1010.44 1010.32 1010.51 1010.42 1010.34 1011.05 1011.48 1011.80 1012.12 1012.24 1012.23 1012.17
1017.10 1016.91 1016.68 1016.40 1016.04 1015.76 1015.33 1014.96 1014.62 1014.22 1013.86 1013.51 1013.12 1012.76 1012.44 1012.12 1011.77 1011.48 1011.06 1010.64 1010.30 1010.11 1009.68 1009.49 1009.33 1009.49 1009.64 1009.93 1010.16 1010.33 1010.20 1010.04 1010.27 1010.85 1011.35 1011.83 1012.04 1012.07
1016.05 1015.88 1015.72 1015.43 1015.17 1014.97 1014.60 1014.24 1013.77 1013.31 1012.84 1012.60 1012.31 1012.00 1011.64 1011.34 1010.97 1010.61 1010.27 1009.94 1009.61 1009.41 1009.04 1008.84 1008.66 1008.78 1008.92 1009.03 1009.21 1009.46 1009.83 1009.77 1009.75 1009.91 1010.22 1010.35 1010.87 1011.07
1015.19 1014.96 1014.66 1014.37 1014.20 1014.03 1013.70 1013.38 1012.94 1012.32 1011.97 1011.61 1011.28 1011.05 1010.68 1010.30 1010.04 1009.75 1009.46 1009.26 1008.85 1008.54 1008.33 1008.14 1008.01 1008.05 1008.01 1008.21 1008.50 1008.74 1009.07 1009.30 1009.39 1009.49 1009.52 1009.63 1009.85 1010.08
Wind_Speed
5 4 3 3 3 3 3 3 3 3 3 3 2 2 3 3 5 5 5 8 12 11 9 10 12 12 13 15 16 16 15 17 18 18 17 16 18 18
3 4 4 3 4 3 3 3 3 4 4 2 3 3 3 4 5 5 6 8 9 11 10 10 8 12 11 12 14 15 14 14 15 18 17 16 14 13
3 4 6 4 4 3 3 3 3 3 5 4 3 2 3 5 6 4 5 5 4 10 10 10 9 7 9 7 10 12 12 12 12 16 18 18 18 17
5 4 6 3 5 4 3 5 4 4 3 9 3 3 4 3 5 5 4 3 4 7 8 10 8 6 6 6 3 7 10 11 11 13 15 17 18 19
5 5 6 4 5 3 4 4 4 3 4 3 5 2 3 2 3 3 3 4 3 6 8 9 10 9 7 6 1 4 6 7 8 10 13 14 16 16
5 4 5 5 5 5 4 5 4 4 3 3 3 4 3 3 2 3 4 2 4 3 5 6 8 7 10 8 4 3 2 3 5 7 10 11 13 15
5 5 5 6 8 7 3 4 4 3 3 4 4 3 3 3 4 2 3 3 4 2 3 2 2 3 4 7 5 5 4 2 2 4 6 10 12 12
5 6 6 7 7 10 11 11 7 4 7 3 4 5 5 4 3 3 2 1 3 1 1 3 0 3 4 4 9 9 8 6 5 3 2 4 5 7
5 5 5 4 7 5 8 10 9 10 9 6 10 10 5 5 3 2 4 3 4 3 2 3 1 4 3 4 11 13 12 10 8 7 5 3 2 4
4 4 4 6 6 7 6 6 6 6 6 4 5 7 6 6 6 4 4 4 3 3 2 4 2 3 4 4 9 11 14 13 11 9 8 7 5 3
4 5 5 5 10 13 6 6 6 6 6 9 9 11 11 13 10 2 3 3 5 3 4 3 1 2 3 3 3 6 9 12 12 11 8 7 6 6
5 6 10 10 14 14 7 6 9 8 6 8 6 6 6 6 9 5 4 6 3 3 4 4 2 2 4 1 2 2 2 6 10 12 9 10 8 3
3 4 4 13 15 16 14 4 8 12 12 7 6 6 4 5 4 4 4 5 6 8 3 3 3 2 3 3 2 2 1 2 1 3 12 11 11 7
4 4 5 13 15 16 13 14 13 12 6 7 5 7 6 4 4 4 5 6 7 10 5 6 3 4 3 2 2 1 1 2 2 2 3 7 12 12
3 8 15 14 12 9 12 14 12 4 4 4 6 8 5 6 5 5 5 6 6 6 7 5 4 4 3 3 3 3 0 2 3 3 1 2 4 3
8 6 8 11 12 10 7 6 4 4 4 4 4 5 5 3 6 4 5 4 3 4 6 8 8 6 4 5 4 4 4 4 1 2 1 1 3 3
10 2 3 3 4 5 4 5 4 4 4 4 4 6 6 6 7 5 5 5 6 3 3 2 5 6 6 4 4 6 5 4 4 4 4 2 4 6
6 4 6 5 6 6 6 6 5 8 6 5 4 6 7 7 7 5 4 6 7 7 6 3 3 2 1 4 13 7 5 6 5 4 4 5 7 5
5 6 6 6 7 7 6 6 8 7 6 5 7 6 6 7 10 8 6 7 8 7 7 5 5 5 6 6 3 20 9 8 6 4 5 6 6 3
4 7 7 7 7 7 7 7 7 7 6 7 8 7 5 7 7 9 7 7 7 7 7 6 7 8 9 8 3 4 17 4 4 6 4 4 5 9
7 6 7 7 7 7 8 8 8 8 8 8 7 7 7 7 8 9 9 14 14 8 9 8 9 15 4 2 3 3 3 19 9 5 4 3 3 2
6 7 8 7 8 8 10 10 10 10 8 7 8 8 8 8 8 9 8 8 8 8 8 7 6 6 6 7 9 8 2 2 9 16 11 10 6 4
7 8 8 8 7 8 9 10 10 10 9 9 9 8 9 8 7 9 8 9 8 9 7 7 6 6 7 4 7 7 4 4 3 3 8 17 16 9
Wind_Direction
250 249 242 254 244 244 222 200 201 299 296 290 286 283 288 308 303 321 322 315 324 317 323 339 346 348 355 357 2 360 0 3 4 9 15 17 23 22
253 253 253 257 265 259 242 239 210 207 248 229 264 273 284 304 299 319 306 311 316 315 309 320 337 336 350 357 0 3 0 5 5 7 10 17 24 17
255 252 266 256 260 264 253 246 245 202 252 282 255 275 286 299 305 304 292 293 303 311 296 299 318 344 339 351 353 3 4 4 9 13 9 17 18 29
289 272 263 252 261 250 244 248 238 237 225 274 264 273 253 273 275 295 300 296 298 302 300 296 300 313 323 325 28 14 6 3 6 8 20 20 23 31
297 289 280 277 271 262 250 254 248 250 220 229 279 268 273 283 302 286 282 290 270 282 301 299 289 282 294 302 132 70 4 12 12 2 21 32 33 35
314 299 289 283 272 280 264 256 255 253 255 238 251 266 251 284 274 282 304 295 300 284 290 285 292 276 289 290 231 146 88 9 19 15 7 30 41 39
335 337 328 316 297 280 272 273 268 253 253 259 266 257 256 268 243 244 265 295 282 295 320 329 351 325 295 297 211 205 180 167 79 24 13 16 24 35
339 338 336 331 335 330 321 312 291 266 281 250 263 255 261 245 247 245 243 315 314 229 53 293 293 286 284 270 249 225 216 199 179 158 90 43 38 33
347 343 337 336 337 326 325 325 316 307 286 269 273 273 260 222 218 245 241 225 234 259 161 244 218 277 277 281 269 241 226 217 200 183 170 151 96 66
343 344 340 330 331 332 332 330 320 309 292 280 250 271 252 264 216 219 229 236 273 272 221 264 169 252 279 263 271 257 238 223 219 198 188 177 164 143
333 335 338 331 326 338 336 317 304 299 298 299 296 292 295 291 267 200 247 235 280 249 217 239 208 279 273 302 301 286 253 240 202 211 215 198 184 169
328 325 339 338 337 338 331 320 313 308 306 308 312 310 307 293 296 262 269 254 238 287 224 194 173 124 318 297 318 323 302 250 204 208 220 213 203 123
315 316 312 328 331 331 326 317 307 315 317 322 314 306 298 286 274 270 245 250 251 245 222 183 188 165 177 291 317 336 304 292 292 259 218 213 212 181
298 294 290 314 324 322 320 310 315 321 317 312 315 316 304 293 291 280 247 232 243 255 249 197 216 188 179 172 237 313 295 270 253 241 218 209 220 208
269 286 307 313 317 321 316 317 325 300 281 286 300 306 294 294 288 277 269 253 242 241 240 208 209 190 191 198 192 184 205 260 211 198 208 194 196 187
285 279 284 301 304 301 314 306 295 284 272 264 286 290 285 282 287 280 284 278 237 267 219 209 210 199 209 223 201 224 190 224 160 194 193 224 233 219
305 271 282 275 277 286 272 256 265 271 272 261 274 285 288 292 290 275 267 278 258 248 257 211 213 213 229 177 206 227 218 212 221 198 167 232 230 219
296 271 276 264 264 272 273 279 261 276 259 253 244 270 278 284 283 276 260 264 268 260 240 212 170 176 219 242 218 238 207 222 213 189 197 222 255 223
266 274 270 275 277 275 269 264 272 266 260 254 261 262 270 273 286 277 267 281 274 255 246 219 207 204 226 242 263 210 225 223 217 195 199 207 243 231
251 268 276 276 272 272 271 268 269 269 261 264 265 258 254 264 275 274 271 264 266 271 250 230 220 224 225 237 212 245 211 166 183 212 208 221 253 274
285 269 268 269 273 276 278 273 268 270 273 267 259 264 261 251 263 271 260 269 267 264 262 244 236 237 219 135 222 269 273 218 195 164 163 163 174 210
264 265 271 265 267 274 282 278 279 274 270 273 270 269 264 258 262 270 264 267 268 265 263 269 254 222 216 211 234 244 204 265 233 222 196 173 165 210
258 267 271 270 265 272 278 276 268 265 265 267 265 264 263 257 255 262 263 271 263 266 257 256 252 216 217 209 240 250 205 199 178 186 225 225 232 234